Dewpoint
68 70 70 70 68 69 67 67 68 68 70 69 69 69 69 70 69 69 68 67 65 63 62 64 65 64 65 66 66 65 66 66 66 67 67 67 65 63 62 62 62 61 61
69 70 71 70 69 69 67 67 69 69 69 70 70 69 70 70 69 68 67 66 64 63 62 63 64 65 65 66 67 65 64 66 67 66 65 65 67 65 67 66 67 67 64
70 70 70 70 70 69 67 68 68 68 68 69 70 70 70 70 69 67 66 65 64 64 64 65 65 65 66 66 66 66 65 63 65 65 64 63 64 66 63 64 64 66 63
70 70 70 70 70 69 68 68 68 67 67 69 69 70 70 69 67 66 65 65 64 65 65 66 66 67 67 66 66 66 65 62 62 61 60 60 61 64 63 61 60 60 61
70 70 71 70 70 68 68 68 67 66 66 67 69 68 68 67 65 64 65 64 65 66 66 66 67 67 66 66 65 64 62 62 61 59 59 58 59 59 61 62 62 62 60
70 70 71 70 70 69 68 67 66 64 64 66 66 68 67 66 64 63 65 65 66 66 66 67 67 67 66 66 65 65 63 63 61 60 60 61 59 59 58 58 60 61 61
70 70 70 70 69 69 68 68 68 65 63 64 64 65 64 64 64 65 65 65 66 66 66 67 67 67 65 65 65 64 63 61 60 61 60 60 61 60 59 58 58 58 61
69 70 69 69 69 69 68 69 69 66 64 64 64 64 63 63 64 63 65 65 66 66 66 66 67 66 64 64 64 63 63 61 60 61 61 62 62 61 60 59 58 58 57
70 69 69 69 69 68 68 69 69 68 66 64 65 65 66 63 64 64 64 65 65 66 66 66 65 64 62 61 61 62 61 61 60 60 61 62 62 61 61 60 59 58 58
69 69 69 69 68 68 68 68 68 68 67 65 65 65 65 65 64 64 65 65 65 65 65 64 64 62 61 60 59 59 59 60 59 60 60 61 64 61 61 60 60 59 58
67 68 68 68 68 68 67 67 67 68 68 66 65 65 65 65 65 65 65 66 66 65 65 64 63 62 59 57 58 59 56 54 55 57 60 61 64 62 62 61 60 59 58
66 67 67 67 67 67 68 67 67 68 69 67 65 64 64 64 64 64 65 65 65 65 64 64 63 62 60 58 57 57 55 54 53 55 60 61 64 62 62 63 62 61 59
66 65 63 64 65 66 66 67 66 67 68 67 65 64 64 63 63 63 63 64 64 64 63 63 62 62 59 58 58 58 57 55 54 52 54 61 63 63 61 61 64 64 62
62 62 61 60 62 63 65 66 66 66 66 67 65 65 64 63 62 62 62 62 62 62 61 60 60 60 60 60 59 59 57 56 55 53 52 53 60 63 61 60 61 63 64
62 61 61 61 60 63 62 65 66 65 66 66 66 65 63 63 62 63 62 62 61 61 61 60 60 60 60 60 59 59 57 55 55 54 54 54 54 61 62 61 61 61 62
59 56 56 59 60 61 62 63 65 65 65 65 66 65 64 63 62 62 62 62 61 60 60 60 59 59 60 58 56 56 55 55 55 56 56 56 56 57 60 61 60 61 62
57 53 52 54 61 61 63 60 62 64 64 64 64 66 64 63 62 62 62 62 61 61 60 59 58 57 57 58 58 58 58 58 58 58 58 58 58 58 58 61 60 61 61
55 52 54 60 57 63 64 62 62 61 62 63 63 63 64 63 62 61 61 60 58 58 57 53 54 56 57 57 58 58 59 59 59 59 59 59 59 59 59 60 61 62 61
57 56 57 59 60 62 65 65 64 63 63 61 61 61 61 61 60 60 59 57 56 54 53 54 55 57 58 59 59 60 60 60 60 60 59 60 60 59 59 59 59 60 60
57 58 57 58 61 63 64 63 65 65 65 64 62 60 60 60 59 58 58 58 59 58 56 56 57 58 59 59 60 60 60 59 58 58 58 58 58 59 59 58 59 59 60
57 57 57 57 61 62 63 62 64 63 64 64 64 62 60 60 60 59 59 59 60 60 60 61 60 60 60 61 60 56 55 56 55 55 54 54 56 57 58 57 58 59 57
59 59 59 58 61 64 63 61 62 63 64 63 64 64 64 63 62 62 61 61 61 61 61 62 62 60 59 59 56 55 51 53 53 53 53 52 53 54 53 54 54 53 53
61 62 62 60 62 62 63 63 63 63 63 63 64 64 64 64 64 63 63 62 62 62 62 61 60 60 58 58 58 56 51 50 52 53 52 52 51 51 52 52 50 50 50
50 59 61 62 62 62 63 62 60 59 59 61 62 63 62 62 61 62 63 63 61 59 59 58 57 57 58 57 56 55 56 56 51 48 51 52 50 50 50 49 47 49 49
39 39 51 60 62 62 62 62 61 61 61 61 60 59 58 58 58 58 59 58 57 56 55 54 53 52 53 53 53 52 51 51 52 51 48 48 49 47 48 47 47 47 48
41 39 38 45 56 61 62 62 62 60 60 59 59 58 57 55 54 54 54 54 52 50 49 48 49 49 50 51 51 52 51 50 48 48 48 49 49 48 47 47 47 46 47
Wind_Speed
15 18 22 22 19 18 16 15 14 11 12 18 21 21 22 23 24 22 22 20 18 19 20 19 19 19 19 18 19 19 19 19 16 16 15 15 17 16 14 12 10 11 14
20 20 23 22 19 19 17 16 14 12 11 16 21 22 23 23 23 21 21 19 18 19 20 20 20 19 18 16 15 15 16 16 14 14 15 15 14 15 13 16 18 13 15
20 20 22 22 19 18 17 16 13 13 10 15 20 23 23 23 23 22 20 18 18 19 19 20 19 17 15 13 10 8 11 13 12 13 14 13 12 15 15 17 17 18 16
19 16 18 20 20 20 18 16 16 15 11 13 19 21 21 22 21 19 17 17 17 18 18 18 17 16 13 12 13 14 13 12 13 13 12 12 11 13 14 14 14 14 14
16 15 17 19 21 20 20 17 16 14 13 13 14 16 18 19 17 17 17 16 16 16 16 16 16 14 13 11 14 13 13 12 12 12 11 10 10 11 12 12 11 11 12
16 15 18 20 20 20 19 16 16 15 14 13 13 14 16 17 16 17 15 15 14 14 14 14 13 13 13 14 13 11 11 11 11 10 10 9 9 12 12 12 11 10 10
16 16 16 19 19 19 19 16 17 16 15 14 14 14 16 16 16 15 14 13 13 13 13 12 12 11 12 12 10 10 10 9 9 9 8 7 8 11 11 11 11 10 9
17 16 16 18 17 17 16 15 15 17 15 14 14 14 15 16 15 14 12 11 12 12 11 11 10 10 10 10 10 8 8 7 7 7 6 5 7 9 10 10 10 10 9
13 16 15 14 14 14 14 9 14 18 16 14 12 12 11 14 13 12 11 10 10 10 8 8 7 8 8 8 9 7 6 6 5 4 4 2 3 6 7 8 8 8 8
14 16 15 14 13 11 9 10 8 16 17 15 13 12 11 10 11 10 9 8 8 8 7 6 5 5 5 5 6 5 5 5 2 1 0 0 1 3 4 5 6 6 7
11 15 15 15 13 12 9 8 8 11 16 15 13 14 12 9 8 7 7 7 6 6 5 4 3 2 3 4 4 4 3 2 1 2 3 3 3 1 1 2 2 3 4
11 9 14 16 15 11 8 8 6 6 9 10 12 12 11 10 8 7 6 6 5 4 3 2 1 1 2 2 3 3 2 1 2 2 3 6 6 5 3 3 2 1 1
14 12 14 10 6 11 11 10 8 7 8 8 13 12 10 8 8 7 5 4 3 3 2 1 1 1 2 2 3 3 3 2 3 3 4 7 8 8 6 5 5 5 5
16 22 14 14 11 5 1 10 10 10 9 9 11 11 11 9 8 7 6 6 5 4 4 3 3 3 3 4 4 5 5 4 4 5 6 7 9 10 8 6 6 8 10
16 23 19 10 7 8 5 5 9 11 12 10 11 12 11 11 12 10 9 7 7 5 5 5 5 4 5 5 5 6 7 7 7 7 7 9 9 10 11 10 9 9 11
21 15 21 9 6 7 7 8 9 12 11 11 10 12 12 11 11 10 10 9 8 8 6 6 5 5 6 5 6 6 7 7 7 8 8 9 10 10 12 12 11 12 10
20 10 25 5 5 10 10 7 7 8 11 13 14 13 14 13 12 10 11 10 10 9 7 6 5 4 4 3 7 7 8 8 8 9 9 9 8 9 10 11 13 14 7
17 16 22 19 18 13 11 10 8 6 8 11 13 14 15 15 15 12 12 13 10 9 9 7 5 5 6 6 6 8 8 8 11 8 5 6 6 5 6 9 11 11 3
16 18 18 19 12 14 13 9 9 12 9 11 9 12 14 15 15 15 14 14 11 10 9 8 7 6 5 6 7 9 9 7 7 8 10 8 8 7 8 7 6 8 8
19 15 15 20 16 17 14 4 10 10 11 12 12 16 16 15 16 16 14 14 13 11 9 8 9 8 7 7 6 7 7 8 8 9 8 8 9 9 8 6 3 6 7
18 18 19 17 13 13 16 20 17 23 17 13 13 12 12 13 16 17 14 13 12 12 10 9 5 7 7 4 4 5 6 9 10 7 4 6 7 5 1 4 7 9 11
18 20 19 21 20 23 20 18 15 17 16 15 12 11 8 7 8 11 12 13 13 11 10 8 6 2 0 2 2 2 5 6 3 3 5 7 6 6 8 8 9 10 9
14 21 20 26 28 26 23 16 9 2 2 5 10 10 14 16 16 15 10 8 8 7 8 5 6 5 5 1 0 4 5 3 3 2 5 7 7 7 8 8 9 8 8
16 16 19 18 22 21 21 17 16 21 19 15 14 10 8 10 7 5 6 8 3 1 1 2 2 2 3 4 1 2 2 2 3 6 1 3 8 7 6 6 6 6 7
7 11 12 12 12 12 14 18 23 25 8 8 4 4 7 7 11 11 11 10 7 3 2 1 1 3 1 2 3 1 1 1 3 9 8 4 4 5 4 5 6 5 5
7 9 9 10 12 10 11 14 15 16 14 11 12 13 11 4 7 9 13 14 8 5 6 5 5 3 2 0 1 2 4 3 2 3 4 4 6 1 2 3 4 4 5
Wind_Direction
159 154 152 144 144 140 134 134 127 121 115 129 132 129 126 122 121 118 110 107 110 110 111 110 104 106 103 97 88 81 78 82 79 69 56 62 82 80 76 75 75 69 61
146 150 149 144 147 140 135 136 125 118 112 131 133 133 129 127 124 120 113 115 116 115 114 113 113 109 104 97 92 89 82 82 76 67 60 52 88 79 78 60 51 89 70
142 148 152 146 145 137 136 135 135 120 108 122 133 134 130 127 124 119 119 118 119 119 117 118 114 109 105 99 95 104 93 83 80 71 61 51 51 60 65 59 50 58 62
138 140 140 138 142 134 139 133 131 125 117 104 120 127 130 126 120 118 122 122 122 121 120 118 115 107 101 100 91 97 99 90 85 77 67 59 51 56 57 57 59 55 48
128 130 136 142 141 134 134 134 131 128 127 116 115 120 123 117 122 129 126 123 122 123 124 120 114 103 96 107 111 98 96 96 91 84 79 71 66 68 68 66 62 54 57
126 130 140 145 139 137 135 142 137 131 132 128 120 123 122 130 133 127 124 124 124 127 128 122 117 105 96 100 108 105 100 98 89 81 76 72 73 72 71 69 67 64 58
133 131 142 139 140 140 143 151 144 133 133 135 137 138 138 140 133 128 125 126 128 127 128 125 120 108 102 97 106 107 103 95 89 85 78 72 73 74 72 70 67 63 59
141 134 137 137 137 142 150 153 144 136 136 140 144 146 145 138 137 134 131 130 128 128 131 131 125 113 102 96 93 104 114 105 95 89 78 63 73 74 73 71 68 64 61
134 129 124 125 130 133 142 147 153 142 138 139 142 142 137 137 140 139 136 133 128 123 122 121 119 110 102 100 99 96 108 118 109 103 95 76 51 71 74 72 69 67 61
135 123 125 124 124 128 138 150 147 151 141 141 139 131 131 131 146 145 136 132 126 123 119 113 103 89 84 81 90 96 102 101 105 193 178 244 323 64 78 76 71 67 62
123 134 137 135 132 134 141 160 167 140 147 142 143 142 139 138 136 138 143 139 136 133 129 121 106 79 56 45 43 71 102 72 7 286 234 246 253 264 134 102 83 78 73
144 139 141 144 142 139 138 153 165 154 146 143 151 149 148 150 151 154 156 158 157 156 155 155 139 55 22 6 353 23 71 347 332 296 245 246 247 261 247 227 224 217 192
138 92 63 55 116 154 157 162 165 173 155 151 156 157 156 153 158 158 162 177 180 187 201 229 259 273 284 294 324 329 311 306 295 286 267 249 249 256 263 254 240 249 254
141 117 89 60 36 353 223 173 172 177 178 165 171 169 164 168 176 177 181 191 203 203 227 242 252 253 263 276 285 292 291 285 283 282 276 274 260 253 263 265 256 254 256
178 142 127 98 40 358 284 229 189 190 188 188 184 189 178 184 189 190 197 199 210 212 213 227 241 260 270 279 279 275 283 287 283 274 276 276 269 258 259 260 264 263 264
178 168 121 125 149 318 260 246 239 197 193 195 194 198 198 198 199 201 204 209 214 214 216 219 232 256 265 281 290 282 278 280 280 280 279 280 271 262 259 258 259 265 274
183 149 105 186 217 208 221 229 245 253 203 197 209 206 205 210 216 214 214 221 226 217 221 231 237 241 252 261 266 268 269 270 268 269 272 276 271 269 267 258 256 261 291
152 149 141 181 198 186 182 209 229 273 244 221 208 210 212 214 216 215 217 226 230 223 212 211 214 233 245 249 270 279 277 277 276 270 263 276 285 279 276 272 262 264 199
161 167 181 189 194 192 201 192 221 224 233 239 234 217 223 217 215 213 212 223 208 201 204 206 209 211 230 252 267 286 282 278 284 295 299 303 291 280 272 267 255 206 157
174 181 187 183 191 187 178 218 266 251 223 214 231 233 223 213 209 208 211 211 199 197 199 204 213 211 229 245 262 277 284 293 292 301 314 306 296 282 276 258 205 160 141
185 186 195 197 208 182 169 187 219 234 234 220 219 226 225 210 201 200 207 199 197 201 206 211 227 234 249 232 275 305 300 292 307 343 9 355 347 331 284 133 121 104 79
183 202 194 201 212 204 199 212 219 213 219 234 219 199 203 211 212 212 209 200 195 197 205 198 198 239 34 66 260 290 312 323 6 61 33 25 26 68 87 96 100 100 100
201 204 195 206 211 212 210 206 206 238 163 215 241 202 202 213 216 196 185 192 212 196 205 201 176 198 247 312 115 245 293 259 321 355 37 40 46 74 84 89 93 94 97
198 208 210 216 213 207 197 202 213 223 218 225 212 203 187 164 144 131 169 147 127 287 167 266 142 141 184 238 312 299 236 220 296 312 22 47 56 58 86 90 93 82 83
206 211 209 224 238 233 219 208 210 228 212 122 54 160 156 123 120 123 132 121 132 126 152 178 91 86 107 183 191 229 282 275 241 244 284 295 61 47 74 112 110 99 78
250 228 218 215 226 224 215 218 214 215 196 168 172 184 175 139 122 143 137 128 115 156 141 117 88 71 51 38 227 224 225 224 202 209 243 295 276 211 99 106 123 118 100